Time,TemperatureF,DewpointF,PressureIn,WindDirection,WindDirectionDegrees,WindSpeedMPH,WindSpeedGustMPH,Humidity,HourlyPrecipIn,Conditions,Clouds,dailyrainin,SoftwareType,DateUTC
2013-07-28 00:02:00,66.0,63.0,-100.00,WSW,240,4.0,7.0,90,0.00,,,-99.99,,2013-07-28 04:02:00,
2013-07-28 00:12:00,66.0,63.0,-100.00,SW,230,6.0,7.0,90,0.00,,,-99.99,,2013-07-28 04:12:00,
2013-07-28 00:22:00,65.0,63.0,-100.00,WSW,245,3.0,7.0,90,0.00,,,-99.99,,2013-07-28 04:22:00,
2013-07-28 00:32:00,65.0,62.0,-100.00,WNW,285,4.0,7.0,92,0.00,,,-99.99,,2013-07-28 04:32:00,
2013-07-28 00:43:00,64.0,62.0,-100.00,West,265,4.0,7.0,93,0.00,,,-99.99,,2013-07-28 04:43:00,
2013-07-28 00:53:00,63.0,62.0,-100.00,WSW,250,3.0,7.0,95,0.00,,,-99.99,,2013-07-28 04:53:00,
2013-07-28 01:02:00,63.0,62.0,-100.00,WSW,250,3.0,4.0,95,0.00,,,-99.99,,2013-07-28 05:02:00,
2013-07-28 01:12:00,63.0,61.0,-100.00,West,270,5.0,8.0,94,0.00,,,-99.99,,2013-07-28 05:12:00,
2013-07-28 01:22:00,63.0,61.0,-100.00,WNW,290,2.0,6.0,93,0.00,,,-99.99,,2013-07-28 05:22:00,
2013-07-28 01:32:00,63.0,60.0,-100.00,NW,310,2.0,6.0,91,0.00,,,-99.99,,2013-07-28 05:32:00,
2013-07-28 01:43:00,63.0,59.0,-100.00,NW,310,4.0,8.0,87,0.00,,,-99.99,,2013-07-28 05:43:00,
2013-07-28 01:52:00,63.0,58.0,-100.00,NNW,335,4.0,6.0,85,0.00,,,-99.99,,2013-07-28 05:52:00,
2013-07-28 02:02:00,62.0,58.0,-100.00,North,10,3.0,5.0,85,0.00,,,-99.99,,2013-07-28 06:02:00,
2013-07-28 02:12:00,62.0,57.0,-100.00,NNW,340,2.0,4.0,83,0.00,,,-99.99,,2013-07-28 06:12:00,
2013-07-28 02:22:00,62.0,57.0,-100.00,NW,305,1.0,4.0,84,0.00,,,-99.99,,2013-07-28 06:22:00,
2013-07-28 02:32:00,61.0,56.0,-100.00,North,5,2.0,5.0,84,0.00,,,-99.99,,2013-07-28 06:32:00,
2013-07-28 02:43:00,61.0,56.0,-100.00,NW,310,1.0,4.0,86,0.00,,,-99.99,,2013-07-28 06:43:00,
2013-07-28 02:52:00,61.0,56.0,-100.00,NW,310,1.0,4.0,86,0.00,,,-99.99,,2013-07-28 06:52:00,
2013-07-28 03:02:00,60.0,56.0,-100.00,NNE,20,1.0,2.0,87,0.00,,,-99.99,,2013-07-28 07:02:00,
2013-07-28 03:12:00,60.0,56.0,-100.00,West,270,1.0,2.0,89,0.00,,,-99.99,,2013-07-28 07:12:00,
2013-07-28 03:23:00,59.0,56.0,-100.00,WNW,300,1.0,2.0,88,0.00,,,-99.99,,2013-07-28 07:23:00,
2013-07-28 03:32:00,60.0,56.0,-100.00,NW,320,1.0,2.0,86,0.00,,,-99.99,,2013-07-28 07:32:00,
2013-07-28 03:43:00,60.0,56.0,-100.00,NNW,330,1.0,2.0,86,0.00,,,-99.99,,2013-07-28 07:43:00,
2013-07-28 03:53:00,59.0,55.0,-100.00,WNW,295,1.0,3.0,87,0.00,,,-99.99,,2013-07-28 07:53:00,
2013-07-28 04:02:00,58.0,55.0,-100.00,West,260,1.0,2.0,89,0.00,,,-99.99,,2013-07-28 08:02:00,
2013-07-28 04:12:00,58.0,55.0,-100.00,SW,225,1.0,2.0,89,0.00,,,-99.99,,2013-07-28 08:12:00,
2013-07-28 04:22:00,58.0,55.0,-100.00,WNW,295,1.0,1.0,90,0.00,,,-99.99,,2013-07-28 08:22:00,
2013-07-28 04:33:00,58.0,55.0,-100.00,West,265,1.0,1.0,90,0.00,,,-99.99,,2013-07-28 08:33:00,
2013-07-28 04:42:00,58.0,55.0,-100.00,NNW,340,0.0,1.0,90,0.00,,,-99.99,,2013-07-28 08:42:00,
2013-07-28 04:53:00,56.0,55.0,-100.00,West,280,1.0,2.0,94,0.00,,,-99.99,,2013-07-28 08:53:00,
2013-07-28 05:02:00,57.0,55.0,-100.00,WNW,300,0.0,1.0,90,0.00,,,-99.99,,2013-07-28 09:02:00,
2013-07-28 05:12:00,56.0,55.0,-100.00,West,275,1.0,2.0,95,0.00,,,-99.99,,2013-07-28 09:12:00,
2013-07-28 05:22:00,56.0,55.0,-100.00,WNW,285,1.0,2.0,95,0.00,,,-99.99,,2013-07-28 09:22:00,
2013-07-28 05:32:00,56.0,55.0,-100.00,West,275,2.0,3.0,95,0.00,,,-99.99,,2013-07-28 09:32:00,
2013-07-28 05:43:00,57.0,55.0,-100.00,West,260,0.0,1.0,93,0.00,,,-99.99,,2013-07-28 09:43:00,
2013-07-28 05:53:00,57.0,55.0,-100.00,WSW,245,0.0,1.0,93,0.00,,,-99.99,,2013-07-28 09:53:00,
2013-07-28 06:02:00,56.0,55.0,-100.00,West,275,1.0,2.0,95,0.00,,,-99.99,,2013-07-28 10:02:00,
2013-07-28 06:12:00,56.0,55.0,-100.00,WNW,285,1.0,3.0,96,0.00,,,-99.99,,2013-07-28 10:12:00,
2013-07-28 06:22:00,57.0,55.0,-100.00,WNW,300,1.0,3.0,93,0.00,,,-99.99,,2013-07-28 10:22:00,
2013-07-28 06:33:00,56.0,55.0,-100.00,WNW,285,1.0,2.0,93,0.00,,,-99.99,,2013-07-28 10:33:00,
2013-07-28 06:42:00,56.0,55.0,-100.00,WNW,285,0.0,0.0,94,0.00,,,-99.99,,2013-07-28 10:42:00,
2013-07-28 06:52:00,56.0,55.0,-100.00,West,275,0.0,0.0,94,0.00,,,-99.99,,2013-07-28 10:52:00,
2013-07-28 07:12:00,57.0,55.0,-100.00,WNW,290,0.0,0.0,92,0.00,,,-99.99,,2013-07-28 11:12:00,
2013-07-28 07:22:00,56.0,55.0,-100.00,West,275,1.0,1.0,94,0.00,,,-99.99,,2013-07-28 11:22:00,
2013-07-28 07:33:00,56.0,55.0,-100.00,WNW,285,0.0,1.0,95,0.00,,,-99.99,,2013-07-28 11:33:00,
2013-07-28 07:43:00,57.0,55.0,-100.00,West,265,0.0,1.0,94,0.00,,,-99.99,,2013-07-28 11:43:00,
2013-07-28 07:54:00,58.0,55.0,-100.00,SSW,200,0.0,1.0,92,0.00,,,-99.99,,2013-07-28 11:54:00,
2013-07-28 08:02:00,59.0,55.0,-100.00,South,175,0.0,1.0,86,0.00,,,-99.99,,2013-07-28 12:02:00,
2013-07-28 08:12:00,59.0,55.0,-100.00,West,280,1.0,1.0,87,0.00,,,-99.99,,2013-07-28 12:12:00,
2013-07-28 08:22:00,61.0,56.0,-100.00,WNW,295,0.0,1.0,83,0.00,,,-99.99,,2013-07-28 12:22:00,
2013-07-28 08:33:00,62.0,55.0,-100.00,NE,45,0.0,3.0,78,0.00,,,-99.99,,2013-07-28 12:33:00,
2013-07-28 08:43:00,60.0,56.0,-100.00,West,260,0.0,1.0,84,0.00,,,-99.99,,2013-07-28 12:43:00,
2013-07-28 08:53:00,61.0,55.0,-100.00,SW,225,1.0,2.0,82,0.00,,,-99.99,,2013-07-28 12:53:00,
2013-07-28 09:02:00,62.0,56.0,-100.00,South,190,0.0,2.0,82,0.00,,,-99.99,,2013-07-28 13:02:00,
2013-07-28 09:12:00,64.0,56.0,-100.00,SW,235,0.0,2.0,76,0.00,,,-99.99,,2013-07-28 13:12:00,
2013-07-28 09:22:00,63.0,54.0,-100.00,WNW,290,1.0,3.0,72,0.00,,,-99.99,,2013-07-28 13:22:00,
2013-07-28 09:32:00,63.0,54.0,-100.00,West,275,1.0,3.0,71,0.00,,,-99.99,,2013-07-28 13:32:00,
2013-07-28 09:43:00,63.0,53.0,-100.00,WSW,240,2.0,4.0,70,0.00,,,-99.99,,2013-07-28 13:43:00,
2013-07-28 09:53:00,63.0,52.0,-100.00,SW,220,2.0,4.0,66,0.00,,,-99.99,,2013-07-28 13:53:00,
2013-07-28 10:02:00,64.0,53.0,-100.00,SW,220,4.0,6.0,68,0.00,,,-99.99,,2013-07-28 14:02:00,
2013-07-28 10:23:00,65.0,54.0,-100.00,SSW,210,6.0,11.0,68,0.00,,,-99.99,,2013-07-28 14:23:00,
2013-07-28 10:33:00,65.0,56.0,-100.00,SSW,200,4.0,7.0,71,0.00,,,-99.99,,2013-07-28 14:33:00,
2013-07-28 10:43:00,65.0,55.0,-100.00,SSW,205,6.0,9.0,68,0.00,,,-99.99,,2013-07-28 14:43:00,
2013-07-28 10:53:00,66.0,55.0,-100.00,SSE,165,6.0,9.0,67,0.00,,,-99.99,,2013-07-28 14:53:00,
2013-07-28 11:03:00,66.0,55.0,-100.00,South,175,6.0,12.0,68,0.00,,,-99.99,,2013-07-28 15:03:00,
2013-07-28 11:13:00,65.0,56.0,-100.00,SW,235,5.0,9.0,70,0.00,,,-99.99,,2013-07-28 15:13:00,
2013-07-28 11:22:00,67.0,55.0,-100.00,SW,235,9.0,14.0,66,0.00,,,-99.99,,2013-07-28 15:22:00,
2013-07-28 11:32:00,65.0,54.0,-100.00,SSW,200,8.0,14.0,67,0.00,,,-99.99,,2013-07-28 15:32:00,
2013-07-28 11:43:00,65.0,54.0,-100.00,SW,220,7.0,11.0,67,0.00,,,-99.99,,2013-07-28 15:43:00,
2013-07-28 11:53:00,66.0,56.0,-100.00,WSW,240,7.0,14.0,68,0.00,,,-99.99,,2013-07-28 15:53:00,
2013-07-28 12:03:00,65.0,55.0,-100.00,SW,235,12.0,18.0,68,0.00,,,-99.99,,2013-07-28 16:03:00,
2013-07-28 12:12:00,64.0,54.0,-100.00,WSW,245,9.0,22.0,71,0.00,,,-99.99,,2013-07-28 16:12:00,
2013-07-28 12:22:00,64.0,54.0,-100.00,SW,230,12.0,17.0,68,0.00,,,-99.99,,2013-07-28 16:22:00,
2013-07-28 12:33:00,65.0,55.0,-100.00,WSW,240,9.0,19.0,68,0.00,,,-99.99,,2013-07-28 16:33:00,
2013-07-28 12:43:00,66.0,54.0,-100.00,SW,235,12.0,21.0,64,0.00,,,-99.99,,2013-07-28 16:43:00,
2013-07-28 12:52:00,68.0,56.0,-100.00,SW,230,7.0,16.0,66,0.00,,,-99.99,,2013-07-28 16:52:00,
2013-07-28 13:02:00,67.0,54.0,-100.00,SW,230,11.0,21.0,62,0.00,,,-99.99,,2013-07-28 17:02:00,
2013-07-28 13:13:00,67.0,53.0,-100.00,WSW,245,14.0,20.0,59,0.00,,,-99.99,,2013-07-28 17:13:00,
2013-07-28 13:23:00,68.0,54.0,-100.00,WSW,240,11.0,17.0,60,0.00,,,-99.99,,2013-07-28 17:23:00,
2013-07-28 13:32:00,67.0,52.0,-100.00,WSW,245,14.0,21.0,58,0.00,,,-99.99,,2013-07-28 17:32:00,
2013-07-28 13:43:00,68.0,50.0,-100.00,SW,215,12.0,18.0,52,0.00,,,-99.99,,2013-07-28 17:43:00,
2013-07-28 13:53:00,68.0,50.0,-100.00,SW,225,13.0,19.0,51,0.00,,,-99.99,,2013-07-28 17:53:00,
2013-07-28 14:03:00,68.0,49.0,-100.00,SW,230,15.0,19.0,50,0.00,,,-99.99,,2013-07-28 18:03:00,
2013-07-28 14:13:00,69.0,50.0,-100.00,West,260,12.0,22.0,50,0.00,,,-99.99,,2013-07-28 18:13:00,
2013-07-28 14:22:00,69.0,51.0,-100.00,SW,230,12.0,16.0,51,0.00,,,-99.99,,2013-07-28 18:22:00,
2013-07-28 14:33:00,69.0,51.0,-100.00,WSW,240,13.0,19.0,52,0.00,,,-99.99,,2013-07-28 18:33:00,
2013-07-28 14:43:00,68.0,49.0,-100.00,SW,230,15.0,26.0,51,0.00,,,-99.99,,2013-07-28 18:43:00,
2013-07-28 14:52:00,69.0,51.0,-100.00,WSW,240,13.0,19.0,52,0.00,,,-99.99,,2013-07-28 18:52:00,
2013-07-28 15:02:00,69.0,51.0,-100.00,SW,230,11.0,19.0,54,0.00,,,-99.99,,2013-07-28 19:02:00,
2013-07-28 15:12:00,69.0,51.0,-100.00,SW,235,12.0,19.0,53,0.00,,,-99.99,,2013-07-28 19:12:00,
2013-07-28 15:22:00,69.0,52.0,-100.00,West,275,7.0,19.0,54,0.00,,,-99.99,,2013-07-28 19:22:00,
2013-07-28 15:33:00,69.0,51.0,-100.00,West,260,12.0,16.0,53,0.00,,,-99.99,,2013-07-28 19:33:00,
2013-07-28 15:43:00,69.0,51.0,-100.00,West,260,9.0,16.0,53,0.00,,,-99.99,,2013-07-28 19:43:00,
2013-07-28 15:52:00,69.0,52.0,-100.00,SW,220,12.0,19.0,55,0.00,,,-99.99,,2013-07-28 19:52:00,
2013-07-28 16:03:00,70.0,51.0,-100.00,SW,230,12.0,16.0,52,0.00,,,-99.99,,2013-07-28 20:03:00,
2013-07-28 16:13:00,70.0,53.0,-100.00,SW,235,9.0,16.0,56,0.00,,,-99.99,,2013-07-28 20:13:00,
2013-07-28 16:23:00,68.0,52.0,-100.00,SW,225,6.0,16.0,55,0.00,,,-99.99,,2013-07-28 20:23:00,
2013-07-28 16:33:00,71.0,52.0,-100.00,West,265,12.0,20.0,52,0.00,,,-99.99,,2013-07-28 20:33:00,
2013-07-28 16:43:00,69.0,52.0,-100.00,SW,225,10.0,14.0,53,0.00,,,-99.99,,2013-07-28 20:43:00,
2013-07-28 16:52:00,69.0,52.0,-100.00,WSW,255,7.0,14.0,53,0.00,,,-99.99,,2013-07-28 20:52:00,
2013-07-28 17:03:00,70.0,52.0,-100.00,SW,225,10.0,15.0,53,0.00,,,-99.99,,2013-07-28 21:03:00,
2013-07-28 17:13:00,69.0,53.0,-100.00,WSW,245,7.0,14.0,55,0.00,,,-99.99,,2013-07-28 21:13:00,
2013-07-28 17:22:00,69.0,52.0,-100.00,SW,220,11.0,16.0,53,0.00,,,-99.99,,2013-07-28 21:22:00,
2013-07-28 17:33:00,70.0,53.0,-100.00,SW,220,9.0,12.0,54,0.00,,,-99.99,,2013-07-28 21:33:00,
2013-07-28 17:44:00,70.0,52.0,-100.00,SW,230,8.0,16.0,53,0.00,,,-99.99,,2013-07-28 21:44:00,
2013-07-28 17:52:00,71.0,53.0,-100.00,SW,225,13.0,17.0,52,0.00,,,-99.99,,2013-07-28 21:52:00,
2013-07-28 18:02:00,69.0,52.0,-100.00,WSW,240,11.0,16.0,53,0.00,,,-99.99,,2013-07-28 22:02:00,
2013-07-28 18:12:00,70.0,53.0,-100.00,SW,225,11.0,16.0,53,0.00,,,-99.99,,2013-07-28 22:12:00,
2013-07-28 18:22:00,70.0,53.0,-100.00,SW,230,10.0,14.0,54,0.00,,,-99.99,,2013-07-28 22:22:00,
2013-07-28 18:32:00,71.0,54.0,-100.00,SW,220,7.0,12.0,55,0.00,,,-99.99,,2013-07-28 22:32:00,
2013-07-28 18:43:00,71.0,54.0,-100.00,WSW,240,7.0,14.0,55,0.00,,,-99.99,,2013-07-28 22:43:00,
2013-07-28 18:52:00,70.0,52.0,-100.00,SW,230,8.0,14.0,52,0.00,,,-99.99,,2013-07-28 22:52:00,
2013-07-28 19:03:00,71.0,53.0,-100.00,WSW,240,9.0,14.0,54,0.00,,,-99.99,,2013-07-28 23:03:00,
2013-07-28 19:12:00,70.0,53.0,-100.00,WSW,245,9.0,15.0,55,0.00,,,-99.99,,2013-07-28 23:12:00,
2013-07-28 19:22:00,68.0,52.0,-100.00,WSW,240,6.0,12.0,56,0.00,,,-99.99,,2013-07-28 23:22:00,
2013-07-28 19:32:00,69.0,53.0,-100.00,WSW,245,7.0,10.0,57,0.00,,,-99.99,,2013-07-28 23:32:00,
2013-07-28 19:43:00,68.0,53.0,-100.00,SW,230,8.0,14.0,57,0.00,,,-99.99,,2013-07-28 23:43:00,
2013-07-28 19:53:00,69.0,52.0,-100.00,SW,225,6.0,12.0,55,0.00,,,-99.99,,2013-07-28 23:53:00,
2013-07-28 20:03:00,69.0,53.0,-100.00,SW,225,5.0,11.0,56,0.00,,,-99.99,,2013-07-29 00:03:00,
2013-07-28 20:12:00,68.0,53.0,-100.00,WSW,240,6.0,7.0,58,0.00,,,-99.99,,2013-07-29 00:12:00,
2013-07-28 20:22:00,67.0,53.0,-100.00,SW,235,4.0,7.0,61,0.00,,,-99.99,,2013-07-29 00:22:00,
2013-07-28 20:32:00,67.0,53.0,-100.00,WSW,245,4.0,9.0,59,0.00,,,-99.99,,2013-07-29 00:32:00,
2013-07-28 20:43:00,66.0,53.0,-100.00,SW,220,4.0,6.0,63,0.00,,,-99.99,,2013-07-29 00:43:00,
2013-07-28 20:52:00,65.0,53.0,-100.00,West,260,3.0,6.0,64,0.00,,,-99.99,,2013-07-29 00:52:00,
2013-07-28 21:02:00,65.0,53.0,-100.00,SSW,210,3.0,6.0,66,0.00,,,-99.99,,2013-07-29 01:02:00,
2013-07-28 21:14:00,65.0,53.0,-100.00,SSW,210,4.0,5.0,66,0.00,,,-99.99,,2013-07-29 01:14:00,
2013-07-28 21:36:00,64.0,54.0,-100.00,SW,230,2.0,6.0,68,0.00,,,-99.99,,2013-07-29 01:36:00,
2013-07-28 21:45:00,64.0,53.0,-100.00,SW,235,4.0,6.0,68,0.00,,,-99.99,,2013-07-29 01:45:00,
2013-07-28 21:57:00,64.0,53.0,-100.00,SW,235,3.0,6.0,68,0.00,,,-99.99,,2013-07-29 01:57:00,
2013-07-28 22:05:00,63.0,54.0,-100.00,SW,235,4.0,6.0,70,0.00,,,-99.99,,2013-07-29 02:05:00,
2013-07-28 22:14:00,63.0,54.0,-100.00,SW,230,4.0,6.0,71,0.00,,,-99.99,,2013-07-29 02:14:00,
2013-07-28 22:26:00,63.0,54.0,-100.00,SW,230,3.0,5.0,71,0.00,,,-99.99,,2013-07-29 02:26:00,
2013-07-28 22:37:00,63.0,54.0,-100.00,SW,225,4.0,6.0,72,0.00,,,-99.99,,2013-07-29 02:37:00,
2013-07-28 22:47:00,63.0,53.0,-100.00,WSW,240,4.0,6.0,71,0.00,,,-99.99,,2013-07-29 02:47:00,
2013-07-28 22:57:00,62.0,54.0,-100.00,West,260,2.0,5.0,73,0.00,,,-99.99,,2013-07-29 02:57:00,
2013-07-28 23:04:00,62.0,54.0,-100.00,WSW,250,2.0,5.0,74,0.00,,,-99.99,,2013-07-29 03:04:00,
2013-07-28 23:17:00,62.0,54.0,-100.00,SW,230,3.0,5.0,75,0.00,,,-99.99,,2013-07-29 03:17:00,
2013-07-28 23:24:00,62.0,53.0,-100.00,SW,235,2.0,4.0,74,0.00,,,-99.99,,2013-07-29 03:24:00,
2013-07-28 23:36:00,62.0,53.0,-100.00,SW,235,4.0,5.0,74,0.00,,,-99.99,,2013-07-29 03:36:00,
2013-07-28 23:48:00,62.0,54.0,-100.00,SW,220,2.0,4.0,76,0.00,,,-99.99,,2013-07-29 03:48:00,
2013-07-28 23:57:00,61.0,55.0,-100.00,SW,225,2.0,3.0,79,0.00,,,-99.99,,2013-07-29 03:57:00,